This is the latest recevied weather packets stored in our database for station/object WX5RP. If no packets are shown the sender has not sent any weather packets the latest 10 day(s).
| Time | Temp. | Humidity | Pressure | Rain* | Wind** | Luminosity | Snow |
|---|---|---|---|---|---|---|---|
| 1787704815 | 27.78° C | 33% | 1019.4 hPa | 0 mm | - | 270 W/m² | - |
| 1787704216 | 28.89° C | 29% | 1019.6 hPa | 0 mm | - | 386 W/m² | - |
| 1787703615 | 30° C | 23% | 1019.8 hPa | 0 mm | - | 431 W/m² | - |
| 1787703015 | 28.89° C | 24% | 1019.7 hPa | 0 mm | - | 469 W/m² | - |
| 1787702415 | 28.33° C | 28% | 1019.5 hPa | 0 mm | - | 375 W/m² | - |
| 1787701816 | 29.44° C | 29% | 1019.5 hPa | 0 mm | - | 532 W/m² | - |
| 1787701215 | 30° C | 29% | 1019.9 hPa | 0 mm | - | 572 W/m² | - |
| 1787700615 | 28.89° C | 31% | 1019.9 hPa | 0 mm | - | 668 W/m² | - |
| 1787700018 | 28.33° C | 24% | 1019.7 hPa | 0 mm | - | 346 W/m² | - |
| 1787699417 | 28.89° C | 26% | 1019.5 hPa | 0 mm | - | 690 W/m² | - |
| 1787698817 | 29.44° C | 25% | 1019.5 hPa | 0 mm | - | 409 W/m² | - |
| 1787698219 | 29.44° C | 24% | 1020.2 hPa | 0 mm | - | 709 W/m² | - |
| 1787697617 | 29.44° C | 28% | 1020.2 hPa | 0 mm | - | 556 W/m² | - |
| 1787697017 | 28.89° C | 29% | 1019.9 hPa | 0 mm | - | 477 W/m² | - |
| 1787696417 | 30° C | 21% | 1019.9 hPa | 0 mm | - | 796 W/m² | - |
| 1787695817 | 30.56° C | 29% | 1020 hPa | 0 mm | - | 817 W/m² | - |
| 1787695216 | 30.56° C | 24% | 1019.9 hPa | 0 mm | - | 843 W/m² | - |
| 1787694616 | 30.56° C | 29% | 1020.1 hPa | 0 mm | - | 134 W/m² | - |
| 1787694016 | 30.56° C | 24% | 1020.5 hPa | 0 mm | - | 903 W/m² | - |
| 1787693417 | 30° C | 24% | 1020.5 hPa | 0 mm | - | 957 W/m² | - |
| 1787692816 | 30° C | 25% | 1020.6 hPa | 0 mm | - | 908 W/m² | - |
| 1787692218 | 30° C | 22% | 1020.5 hPa | 0 mm | - | 806 W/m² | - |
| 1787691617 | 30° C | 21% | 1020.5 hPa | 0 mm | - | 929 W/m² | - |
| 1787691016 | 30° C | 27% | 1020.9 hPa | 0 mm | - | 952 W/m² | - |
| 1787690416 | 29.44° C | 21% | 1021.2 hPa | 0 mm | - | 930 W/m² | - |
* Rain latest hour (hover to see other rain measurements)
** Current wind speed in m/s (hover to see current wind gust speed)